Weather History for Presque Isle, ME

Change the Weather History Date:

Wednesday, November 13, 2013

  Actual Average Record
Temperature  
Mean Temperature 24 °F -  
Max Temperature 30 °F 39 °F 60 °F (1982)
Min Temperature 19 °F 25 °F 0 °F (1933)
Degree Days  
Heating Degree Days 40    
Moisture  
Dew Point 10 °F    
Average Humidity 59    
Maximum Humidity 74    
Minimum Humidity 43    
Precipitation  
Precipitation 0.00 in - - ()
Sea Level Pressure  
Sea Level Pressure 29.99 in    
Wind  
Wind Speed 10 mph (West)    
Max Wind Speed 17 mph    
Max Gust Speed 22 mph    
Visibility 10 miles    
Events      
Averages and records for this station are not official NWS values.
T = Trace of Precipitation, MM = Missing Value Source: NWS Daily Summary

Daily Weather History Graph

Daily Weather History Graph

Search for Another Location

Airport:

Trip Planner

Search our weather history database for the weather conditions in past years. The results will help you decide how hot, cold, wet, or windy it might be!

Date:

Astronomy

Nov. 13, 2013 Rise Set
Actual Time 6:32 AM EST 4:00 PM EST
Civil Twilight 5:59 AM EST 4:33 PM EST
Nautical Twilight 5:22 AM EST 5:09 PM EST
Astronomical Twilight 4:47 AM EST 5:45 PM EST
Moon 1:58 PM EST (11/13) 2:07 AM EST (11/13)
Length of Visible Light 10h 33m
Length of Day
9h 28m
Waxing Gibbous, 84% of the Moon is Illuminated
Nov 13
Waxing Gibbous
Nov 17
Full
Nov 25
Last Quarter
Dec 2
New
Dec 9
First Quarter

Hourly Weather History & Observations

Time (EST) Temp. Windchill Dew Point Humidity Pressure Visibility Wind Dir Wind Speed Gust Speed Precip Events Conditions
12:15 AM 21.2 °F 9.5 °F 10.4 °F 63% 29.92 in 10.0 mi WSW 11.5 mph - N/A   Clear
12:35 AM 21.2 °F 11.7 °F 10.4 °F 63% 29.92 in 10.0 mi WSW 8.1 mph - N/A   Clear
12:55 AM 19.4 °F 9.5 °F 10.4 °F 68% 29.92 in 10.0 mi West 8.1 mph - N/A   Clear
1:15 AM 21.2 °F 10.9 °F 10.4 °F 63% 29.93 in 10.0 mi West 9.2 mph - N/A   Clear
1:35 AM 19.4 °F 9.5 °F 10.4 °F 68% 29.93 in 10.0 mi West 8.1 mph - N/A   Clear
1:55 AM 19.4 °F 6.6 °F 10.4 °F 68% 29.93 in 10.0 mi West 12.7 mph 16.1 mph N/A   Clear
2:15 AM 21.2 °F 10.1 °F 10.4 °F 63% 29.94 in 10.0 mi West 10.4 mph 17.3 mph N/A   Clear
2:35 AM 21.2 °F 8.3 °F 10.4 °F 63% 29.94 in 10.0 mi West 13.8 mph 18.4 mph N/A   Clear
2:55 AM 21.2 °F 8.9 °F 10.4 °F 63% 29.94 in 10.0 mi West 12.7 mph 18.4 mph N/A   Clear
3:15 AM 21.2 °F 10.1 °F 12.2 °F 68% 29.95 in 10.0 mi West 10.4 mph - N/A   Clear
3:35 AM 19.4 °F 9.5 °F 10.4 °F 68% 29.96 in 10.0 mi West 8.1 mph - N/A   Partly Cloudy
3:55 AM 19.4 °F 10.4 °F 10.4 °F 68% 29.96 in 10.0 mi West 6.9 mph - N/A   Mostly Cloudy
4:15 AM 19.4 °F 9.5 °F 12.2 °F 74% 29.97 in 10.0 mi West 8.1 mph - N/A   Scattered Clouds
4:35 AM 19.4 °F 11.5 °F 10.4 °F 68% 29.97 in 10.0 mi West 5.8 mph - N/A   Scattered Clouds
4:55 AM 21.2 °F 10.9 °F 12.2 °F 68% 29.97 in 10.0 mi West 9.2 mph - N/A   Mostly Cloudy
5:15 AM 21.2 °F 10.1 °F 12.2 °F 68% 29.97 in 10.0 mi West 10.4 mph - N/A   Scattered Clouds
5:35 AM 21.2 °F 10.9 °F 12.2 °F 68% 29.97 in 10.0 mi West 9.2 mph - N/A   Partly Cloudy
5:55 AM 21.2 °F 10.9 °F 12.2 °F 68% 29.97 in 10.0 mi WNW 9.2 mph - N/A   Scattered Clouds
6:15 AM 21.2 °F 14.9 °F 12.2 °F 68% 29.99 in 10.0 mi West 4.6 mph - N/A   Partly Cloudy
6:35 AM 21.2 °F 9.5 °F 12.2 °F 68% 29.99 in 10.0 mi NW 11.5 mph 16.1 mph N/A   Scattered Clouds
6:55 AM 23.0 °F 13.1 °F 12.2 °F 63% 30.00 in 10.0 mi NW 9.2 mph - N/A   Mostly Cloudy
7:15 AM 23.0 °F 13.9 °F 10.4 °F 59% 30.01 in 10.0 mi WNW 8.1 mph 21.9 mph N/A   Mostly Cloudy
7:35 AM 23.0 °F 13.9 °F 10.4 °F 59% 30.02 in 10.0 mi NW 8.1 mph - N/A   Overcast
7:55 AM 24.8 °F 16.1 °F 10.4 °F 54% 30.03 in 10.0 mi WNW 8.1 mph - N/A   Overcast
8:15 AM 24.8 °F 12.9 °F 10.4 °F 54% 30.03 in 10.0 mi WNW 13.8 mph - N/A   Overcast
8:35 AM 24.8 °F 16.1 °F 10.4 °F 54% 30.04 in 10.0 mi NW 8.1 mph - N/A   Overcast
8:55 AM 24.8 °F 16.1 °F 12.2 °F 59% 30.04 in 10.0 mi WNW 8.1 mph - N/A   Mostly Cloudy
9:15 AM 26.6 °F 16.8 °F 10.4 °F 51% 30.04 in 10.0 mi NW 10.4 mph 17.3 mph N/A   Partly Cloudy
9:35 AM 26.6 °F 16.2 °F 10.4 °F 51% 30.04 in 10.0 mi NW 11.5 mph 16.1 mph N/A   Partly Cloudy
9:55 AM 26.6 °F 15.7 °F 8.6 °F 47% 30.05 in 10.0 mi NW 12.7 mph 19.6 mph N/A   Mostly Cloudy
10:15 AM 28.4 °F 17.5 °F 8.6 °F 43% 30.04 in 10.0 mi NW 13.8 mph 20.7 mph N/A   Scattered Clouds
10:35 AM 28.4 °F 19.7 °F 8.6 °F 43% 30.04 in 10.0 mi NW 9.2 mph 17.3 mph N/A   Scattered Clouds
10:55 AM 28.4 °F 17.5 °F 8.6 °F 43% 30.04 in 10.0 mi WNW 13.8 mph 19.6 mph N/A   Overcast
11:15 AM 28.4 °F 16.6 °F 8.6 °F 43% 30.03 in 10.0 mi NW 16.1 mph 19.6 mph N/A   Overcast
11:35 AM 28.4 °F 18.5 °F 8.6 °F 43% 30.03 in 10.0 mi NW 11.5 mph 19.6 mph N/A   Overcast
11:55 AM 28.4 °F 18.0 °F 10.4 °F 47% 30.02 in 10.0 mi West 12.7 mph 19.6 mph N/A   Overcast
12:15 PM 30.2 °F 21.3 °F 10.4 °F 44% 30.01 in 10.0 mi WNW 10.4 mph 19.6 mph N/A   Overcast
12:35 PM 28.4 °F 18.5 °F 10.4 °F 47% 30.01 in 10.0 mi West 11.5 mph 17.3 mph N/A   Overcast
12:55 PM 30.2 °F 19.8 °F 10.4 °F 44% 30.00 in 10.0 mi West 13.8 mph 18.4 mph N/A   Overcast
1:15 PM 28.4 °F 19.1 °F 8.6 °F 43% 30.00 in 10.0 mi West 10.4 mph 17.3 mph N/A   Overcast
1:35 PM 28.4 °F 20.4 °F 10.4 °F 47% 29.99 in 10.0 mi WNW 8.1 mph - N/A   Overcast
1:55 PM 30.2 °F 18.5 °F 10.4 °F 44% 30.00 in 10.0 mi West 17.3 mph - N/A   Overcast
2:15 PM 28.4 °F 17.0 °F 10.4 °F 47% 30.00 in 10.0 mi West 15.0 mph 21.9 mph N/A   Scattered Clouds
2:35 PM 26.6 °F 16.2 °F 10.4 °F 51% 30.00 in 10.0 mi WNW 11.5 mph 18.4 mph N/A   Scattered Clouds
2:55 PM 28.4 °F 20.4 °F 10.4 °F 47% 30.00 in 10.0 mi West 8.1 mph - N/A   Mostly Cloudy
3:15 PM 26.6 °F 14.7 °F 10.4 °F 51% 29.99 in 10.0 mi West 15.0 mph 18.4 mph N/A   Mostly Cloudy
3:35 PM 26.6 °F 14.7 °F 10.4 °F 51% 29.99 in 10.0 mi West 15.0 mph 18.4 mph N/A   Mostly Cloudy
3:55 PM 26.6 °F 14.7 °F 10.4 °F 51% 30.00 in 10.0 mi West 15.0 mph 20.7 mph N/A   Scattered Clouds
4:15 PM 24.8 °F 15.3 °F 10.4 °F 54% 30.00 in 10.0 mi WSW 9.2 mph 17.3 mph N/A   Partly Cloudy
4:35 PM 24.8 °F 16.1 °F 10.4 °F 54% 30.00 in 10.0 mi WSW 8.1 mph - N/A   Clear
4:55 PM 24.8 °F 16.1 °F 10.4 °F 54% 30.01 in 10.0 mi WSW 8.1 mph - N/A   Clear
5:15 PM 23.0 °F 12.4 °F 10.4 °F 59% 30.01 in 10.0 mi West 10.4 mph 16.1 mph N/A   Clear
5:35 PM 23.0 °F 13.1 °F 8.6 °F 54% 30.01 in 10.0 mi West 9.2 mph - N/A   Clear
5:55 PM 21.2 °F 11.7 °F 8.6 °F 58% 30.01 in 10.0 mi WSW 8.1 mph - N/A   Clear
6:15 PM 21.2 °F 12.6 °F 8.6 °F 58% 30.01 in 10.0 mi WSW 6.9 mph - N/A   Clear
6:35 PM 21.2 °F 12.6 °F 10.4 °F 63% 30.01 in 10.0 mi WSW 6.9 mph - N/A   Clear
6:55 PM 21.2 °F 12.6 °F 10.4 °F 63% 30.01 in 10.0 mi SW 6.9 mph - N/A   Clear
7:15 PM 21.2 °F 12.6 °F 10.4 °F 63% 30.01 in 10.0 mi SW 6.9 mph - N/A   Clear
7:35 PM 21.2 °F 11.7 °F 10.4 °F 63% 30.00 in 10.0 mi SW 8.1 mph - N/A   Clear
7:55 PM 21.2 °F 13.6 °F 10.4 °F 63% 29.99 in 10.0 mi SW 5.8 mph - N/A   Clear
8:15 PM 19.4 °F 10.4 °F 10.4 °F 68% 29.99 in 10.0 mi SW 6.9 mph - N/A   Clear
8:35 PM 19.4 °F 14.3 °F 10.4 °F 68% 29.98 in 10.0 mi WSW 3.5 mph - N/A   Clear
8:55 PM 21.2 °F 12.6 °F 10.4 °F 63% 29.98 in 10.0 mi WSW 6.9 mph - N/A   Clear
9:15 PM 21.2 °F 12.6 °F 10.4 °F 63% 29.97 in 10.0 mi WSW 6.9 mph - N/A   Scattered Clouds
9:35 PM 21.2 °F 14.9 °F 10.4 °F 63% 29.97 in 10.0 mi SW 4.6 mph - N/A   Clear
9:55 PM 21.2 °F 12.6 °F 10.4 °F 63% 29.96 in 10.0 mi SSW 6.9 mph - N/A   Partly Cloudy
10:15 PM 19.4 °F 10.4 °F 10.4 °F 68% 29.94 in 10.0 mi South 6.9 mph - N/A   Mostly Cloudy
10:35 PM 19.4 °F 10.4 °F 10.4 °F 68% 29.93 in 10.0 mi South 6.9 mph - N/A   Mostly Cloudy
10:55 PM 19.4 °F 9.5 °F 10.4 °F 68% 29.93 in 10.0 mi South 8.1 mph - N/A   Scattered Clouds
11:15 PM 21.2 °F 11.7 °F 12.2 °F 68% 29.92 in 10.0 mi South 8.1 mph - N/A   Partly Cloudy
11:35 PM 21.2 °F 12.6 °F 10.4 °F 63% 29.92 in 10.0 mi South 6.9 mph - N/A   Mostly Cloudy
11:55 PM 21.2 °F 10.9 °F 12.2 °F 68% 29.90 in 10.0 mi South 9.2 mph - N/A   Overcast